KE4OGG Weather Reports


time (UTC)temp
C
wind
direction
speed
KPH
gust
KPH
rain 1hr
cm
rain 24hr
cm
rain mn
cm
humidity
%
barometer
mb
20260504014027 13 0 0.0 0.0 0.00 0.00 0.00 40 1017.0
20260504013523 14 0 0.0 0.0 0.00 0.00 0.00 40 1017.0
20260504013041 14 0 0.0 0.0 0.00 0.00 0.00 40 1016.8
20260504012525 14 0 0.0 0.0 0.00 0.00 0.00 40 1016.8
20260504012023 14 0 0.0 0.0 0.00 0.00 0.00 40 1016.7
20260504011536 15 0 0.0 0.0 0.00 0.00 0.00 40 1016.7
20260504011022 15 183 0.0 0.0 0.00 0.00 0.00 39 1016.7
20260504010527 15 0 0.0 0.0 0.00 0.00 0.00 39 1016.8
20260504010041 15 0 0.0 0.0 0.00 0.00 0.00 38 1016.7
20260504005523 15 0 0.0 3.2 0.00 0.00 0.00 37 1016.7
20260504005026 16 0 0.0 3.2 0.00 0.00 0.00 36 1016.7
20260504004540 16 0 0.0 1.6 0.00 0.00 0.00 36 1016.7
20260504004023 16 135 0.0 1.6 0.00 0.00 0.00 35 1016.6
20260504003524 16 136 0.0 1.6 0.00 0.00 0.00 35 1016.6
20260504003041 16 118 0.0 1.6 0.00 0.00 0.00 34 1016.4
20260504002523 17 119 0.0 1.6 0.00 0.00 0.00 34 1016.4
20260504002023 17 117 0.0 1.6 0.00 0.00 0.00 33 1016.3
20260504001546 17 128 0.0 1.6 0.00 0.00 0.00 33 1016.3
20260504001023 17 129 0.0 1.6 0.00 0.00 0.00 32 1016.1
20260504000522 18 129 0.0 1.6 0.00 0.00 0.00 31 1016.2
20260504000043 18 273 0.0 1.6 0.00 0.00 0.00 30 1016.1
20260503235523 18 273 0.0 1.6 0.00 0.00 0.00 30 1016.1
20260503235024 19 0 0.0 4.8 0.00 0.00 0.00 28 1016.1
20260503234541 19 150 1.6 4.8 0.00 0.00 0.00 28 1016.0
20260503234024 18 215 1.6 8.0 0.00 0.00 0.00 28 1016.0
20260503233523 18 103 0.0 8.0 0.00 0.00 0.00 28 1016.1
20260503233045 19 82 1.6 8.0 0.00 0.00 0.00 27 1016.1
20260503232523 19 111 0.0 4.8 0.00 0.00 0.00 27 1016.0
20260503232023 19 109 1.6 6.4 0.00 0.00 0.00 26 1016.1
20260503231543 19 237 1.6 6.4 0.00 0.00 0.00 25 1016.0
20260503231025 20 148 0.0 6.4 0.00 0.00 0.00 25 1016.0
20260503230527 20 0 0.0 1.6 0.00 0.00 0.00 26 1016.1
20260503230037 20 152 0.0 3.2 0.00 0.00 0.00 25 1016.1
20260503225525 20 0 0.0 6.4 0.00 0.00 0.00 24 1016.2
20260503225024 20 0 1.6 6.4 0.00 0.00 0.00 23 1016.1
20260503224540 20 93 1.6 4.8 0.00 0.00 0.00 23 1016.1
20260503224028 21 228 1.6 4.8 0.00 0.00 0.00 22 1016.1
20260503223523 21 146 0.0 9.7 0.00 0.00 0.00 23 1016.1
20260503223036 21 129 1.6 9.7 0.00 0.00 0.00 23 1016.2
20260503222523 21 0 0.0 4.8 0.00 0.00 0.00 21 1016.2
20260503222023 21 278 1.6 9.7 0.00 0.00 0.00 21 1016.2
20260503221549 22 131 1.6 9.7 0.00 0.00 0.00 20 1016.1
20260503221024 22 121 1.6 9.7 0.00 0.00 0.00 20 1016.1
20260503220524 22 166 1.6 9.7 0.00 0.00 0.00 20 1016.2
20260503220040 22 149 1.6 8.0 0.00 0.00 0.00 19 1016.2
20260503215523 22 179 1.6 6.4 0.00 0.00 0.00 21 1016.2
20260503215023 22 259 0.0 6.4 0.00 0.00 0.00 22 1016.3
20260503214537 22 297 0.0 4.8 0.00 0.00 0.00 21 1016.4
20260503214026 21 297 0.0 8.0 0.00 0.00 0.00 21 1016.4
20260503213524 21 0 0.0 12.9 0.00 0.00 0.00 22 1016.3
20260503213037 21 142 1.6 12.9 0.00 0.00 0.00 25 1016.4
20260503212523 21 115 3.2 9.7 0.00 0.00 0.00 23 1016.5
20260503212023 21 286 0.0 8.0 0.00 0.00 0.00 23 1016.6
20260503211536 21 161 0.0 8.0 0.00 0.00 0.00 24 1016.6
20260503211024 21 149 3.2 8.0 0.00 0.00 0.00 23 1016.6
20260503210525 21 129 0.0 9.7 0.00 0.00 0.00 25 1016.7
20260503210050 21 141 1.6 9.7 0.00 0.00 0.00 24 1016.7
20260503205526 21 146 0.0 4.8 0.00 0.00 0.00 23 1016.7
20260503205024 21 51 1.6 4.8 0.00 0.00 0.00 22 1016.8
20260503204551 21 272 1.6 4.8 0.00 0.00 0.00 22 1016.8
20260503204025 21 120 1.6 8.0 0.00 0.00 0.00 23 1017.0
20260503203524 21 181 3.2 17.7 0.00 0.00 0.00 24 1017.0
20260503203038 21 146 1.6 17.7 0.00 0.00 0.00 24 1017.2
20260503202523 21 98 9.7 17.7 0.00 0.00 0.00 24 1017.1
20260503202025 22 172 1.6 8.0 0.00 0.00 0.00 22 1017.3
20260503201538 22 270 1.6 8.0 0.00 0.00 0.00 24 1017.5
20260503201024 22 97 1.6 12.9 0.00 0.00 0.00 25 1017.6
20260503200524 22 99 1.6 12.9 0.00 0.00 0.00 23 1017.7
20260503200044 22 143 3.2 12.9 0.00 0.00 0.00 21 1017.7
20260503195523 22 220 0.0 8.0 0.00 0.00 0.00 23 1017.9
20260503195024 22 71 1.6 6.4 0.00 0.00 0.00 23 1018.0
20260503194540 22 161 1.6 12.9 0.00 0.00 0.00 24 1018.1
20260503194024 22 259 3.2 12.9 0.00 0.00 0.00 24 1018.3
20260503193524 22 257 1.6 3.2 0.00 0.00 0.00 21 1018.4
20260503193039 22 270 1.6 6.4 0.00 0.00 0.00 22 1018.5
20260503192523 22 141 1.6 8.0 0.00 0.00 0.00 23 1018.6
20260503192027 22 61 1.6 8.0 0.00 0.00 0.00 22 1018.7
20260503191538 22 148 3.2 11.3 0.00 0.00 0.00 22 1018.8
20260503191027 22 257 0.0 11.3 0.00 0.00 0.00 22 1018.8
20260503190524 22 84 1.6 11.3 0.00 0.00 0.00 22 1018.9
20260503190045 22 122 1.6 6.4 0.00 0.00 0.00 24 1019.0
20260503185524 21 27 1.6 6.4 0.00 0.00 0.00 24 1019.1
20260503185028 22 288 0.0 6.4 0.00 0.00 0.00 23 1019.2
20260503184537 21 276 1.6 6.4 0.00 0.00 0.00 22 1019.2
20260503184024 21 293 1.6 9.7 0.00 0.00 0.00 24 1019.4
20260503183523 21 167 1.6 9.7 0.00 0.00 0.00 25 1019.4
20260503183045 21 122 3.2 9.7 0.00 0.00 0.00 24 1019.4
20260503182525 21 297 3.2 9.7 0.00 0.00 0.00 24 1019.6
20260503182024 20 141 0.0 9.7 0.00 0.00 0.00 25 1019.6
20260503181538 20 126 3.2 9.7 0.00 0.00 0.00 24 1019.7
20260503181023 20 299 1.6 9.7 0.00 0.00 0.00 26 1019.6
20260503180526 21 113 3.2 9.7 0.00 0.00 0.00 21 1019.6
20260503180038 21 103 1.6 8.0 0.00 0.00 0.00 24 1019.6
20260503175524 21 262 1.6 8.0 0.00 0.00 0.00 21 1019.7
20260503175026 21 118 0.0 6.4 0.00 0.00 0.00 23 1019.8
20260503174537 20 99 1.6 6.4 0.00 0.00 0.00 25 1019.8
20260503174024 20 158 1.6 9.7 0.00 0.00 0.00 25 1019.9
20260503173524 19 107 1.6 16.1 0.00 0.00 0.00 26 1019.9
20260503173101 18 124 1.6 16.1 0.00 0.00 0.00 29 1019.9
20260503172522 18 91 4.8 11.3 0.00 0.00 0.00 33 1019.9
20260503172023 18 115 3.2 11.3 0.00 0.00 0.00 32 1020.1
20260503171545 18 136 3.2 11.3 0.00 0.00 0.00 33 1020.2
20260503171020 18 127 3.2 12.9 0.00 0.00 0.00 34 1020.2
20260503170525 18 111 3.2 14.5 0.00 0.00 0.00 34 1020.3
20260503150527 17 75 0.0 4.8 0.00 0.00 0.00 36 1021.3
20260503131025 13 37 0.0 1.6 0.00 0.00 0.00 52 1020.8
20260503130523 12 311 0.0 1.6 0.00 0.00 0.00 53 1020.8
20260503110524 4 0 0.0 0.0 0.00 0.00 0.00 75 1019.9
20260503081551 5 0 0.0 0.0 0.00 0.00 0.00 65 1017.9
20260503081024 5 0 0.0 0.0 0.00 0.00 0.00 64 1017.8
20260503080524 5 0 0.0 0.0 0.00 0.00 0.00 65 1017.8
20260503072524 6 0 0.0 0.0 0.00 0.00 0.00 62 1017.5
20260503072024 6 0 0.0 0.0 0.00 0.00 0.00 62 1017.4
20260503071541 6 0 0.0 0.0 0.00 0.00 0.00 63 1017.3
20260503071026 6 0 0.0 0.0 0.00 0.00 0.00 61 1017.3
20260503070524 6 0 0.0 0.0 0.00 0.00 0.00 61 1017.2
20260503055028 7 0 0.0 0.0 0.00 0.00 0.00 58 1017.2
20260503054539 7 0 0.0 0.0 0.00 0.00 0.00 58 1017.2
20260503054025 7 0 0.0 0.0 0.00 0.00 0.00 57 1017.1
20260503053524 7 0 0.0 0.0 0.00 0.00 0.00 57 1017.1
20260503053036 7 0 0.0 0.0 0.00 0.00 0.00 57 1017.3
20260503052525 7 0 0.0 0.0 0.00 0.00 0.00 57 1017.3
20260503052024 7 0 0.0 0.0 0.00 0.00 0.00 56 1017.3
20260503051535 7 0 0.0 0.0 0.00 0.00 0.00 57 1017.2
20260503051024 7 0 0.0 1.6 0.00 0.00 0.00 55 1017.3
20260503050524 7 319 0.0 1.6 0.00 0.00 0.00 55 1017.2
20260503050040 7 0 0.0 0.0 0.00 0.00 0.00 54 1017.1
20260503045525 8 0 0.0 0.0 0.00 0.00 0.00 53 1017.1
20260503045027 8 0 0.0 0.0 0.00 0.00 0.00 52 1017.1
20260503044542 8 0 0.0 0.0 0.00 0.00 0.00 52 1017.1
20260503044025 8 0 0.0 1.6 0.00 0.00 0.00 52 1017.1
20260503043523 8 0 0.0 1.6 0.00 0.00 0.00 52 1017.1
20260503043037 8 0 0.0 1.6 0.00 0.00 0.00 51 1017.1
20260503042524 8 0 0.0 1.6 0.00 0.00 0.00 52 1017.1
20260503042024 8 0 0.0 0.0 0.00 0.00 0.00 51 1017.0
20260503041539 8 0 0.0 0.0 0.00 0.00 0.00 51 1017.1
20260503041024 8 0 0.0 0.0 0.00 0.00 0.00 51 1017.1
20260503040524 8 0 0.0 0.0 0.00 0.00 0.00 49 1017.1
20260503040041 9 0 0.0 0.0 0.00 0.00 0.00 47 1017.0
20260503035524 9 0 0.0 0.0 0.00 0.00 0.00 46 1017.1
20260503035027 9 0 0.0 0.0 0.00 0.00 0.00 45 1017.0
20260503034539 9 0 0.0 0.0 0.00 0.00 0.00 47 1017.0
20260503034024 9 0 0.0 0.0 0.00 0.00 0.00 46 1016.9
20260503033526 9 0 0.0 0.0 0.00 0.00 0.00 48 1016.9
20260503033038 10 0 0.0 0.0 0.00 0.00 0.00 46 1016.8
20260503032523 10 0 0.0 0.0 0.00 0.00 0.00 46 1016.7
20260503032024 10 0 0.0 0.0 0.00 0.00 0.00 46 1016.6
20260503031547 10 0 0.0 1.6 0.00 0.00 0.00 45 1016.6
20260503031023 11 0 0.0 1.6 0.00 0.00 0.00 44 1016.6
20260503030527 11 339 0.0 1.6 0.00 0.00 0.00 40 1016.5
20260503030037 11 0 0.0 1.6 0.00 0.00 0.00 39 1016.5
20260503025527 12 0 0.0 1.6 0.00 0.00 0.00 36 1016.3
20260503025024 12 339 0.0 3.2 0.00 0.00 0.00 34 1016.3
20260503024543 12 326 0.0 3.2 0.00 0.00 0.00 34 1016.2
20260503024024 12 289 1.6 3.2 0.00 0.00 0.00 34 1016.2
20260503023523 12 293 0.0 1.6 0.00 0.00 0.00 36 1016.1
20260503023040 12 319 0.0 1.6 0.00 0.00 0.00 34 1016.0
20260503022523 12 0 0.0 3.2 0.00 0.00 0.00 35 1016.0
20260503022023 13 0 0.0 3.2 0.00 0.00 0.00 32 1015.9
20260503021540 13 285 1.6 3.2 0.00 0.00 0.00 32 1015.8
20260503021024 13 295 1.6 3.2 0.00 0.00 0.00 32 1015.8
20260503020524 13 295 0.0 3.2 0.00 0.00 0.00 31 1015.7
20260503020041 13 0 0.0 3.2 0.00 0.00 0.00 33 1015.6
20260503015525 13 324 0.0 3.2 0.00 0.00 0.00 31 1015.6
20260503015025 13 281 0.0 3.2 0.00 0.00 0.00 32 1015.4
20260503014537 13 311 0.0 3.2 0.00 0.00 0.00 31 1015.4